Time,TemperatureF,DewpointF,PressureIn,WindDirection,WindDirectionDegrees,WindSpeedMPH,WindSpeedGustMPH,Humidity,HourlyPrecipIn,Conditions,Clouds,dailyrainin,SolarRadiationWatts/m^2,SoftwareType,DateUTC
2013-01-03 00:23:00,20.0,14.0,-100.00,SW,236,3.0,6.0,78,0.00,,,0.00,1.000000,,2013-01-03 05:23:00,
2013-01-03 00:33:00,20.0,14.0,-100.00,SW,236,3.0,6.0,78,0.00,,,0.00,1.000000,,2013-01-03 05:33:00,
2013-01-03 00:42:00,20.0,14.0,-100.00,SW,236,3.0,6.0,78,0.00,,,0.00,1.000000,,2013-01-03 05:42:00,
2013-01-03 00:52:00,20.0,14.0,-100.00,SW,236,3.0,6.0,78,0.00,,,0.00,1.000000,,2013-01-03 05:52:00,
2013-01-03 01:22:00,18.0,13.0,-100.00,South,181,1.0,5.0,81,0.00,,,0.00,1.000000,,2013-01-03 06:22:00,
2013-01-03 01:33:00,18.0,13.0,-100.00,South,181,1.0,5.0,81,0.00,,,0.00,1.000000,,2013-01-03 06:33:00,
2013-01-03 01:42:00,18.0,13.0,-100.00,South,181,1.0,5.0,81,0.00,,,0.00,1.000000,,2013-01-03 06:42:00,
2013-01-03 01:52:00,18.0,13.0,-100.00,South,181,1.0,5.0,81,0.00,,,0.00,1.000000,,2013-01-03 06:52:00,
2013-01-03 02:22:00,18.0,14.0,-100.00,West,268,1.0,2.0,83,0.00,,,0.00,1.000000,,2013-01-03 07:22:00,
2013-01-03 02:33:00,18.0,14.0,-100.00,West,268,1.0,2.0,83,0.00,,,0.00,1.000000,,2013-01-03 07:33:00,
2013-01-03 02:43:00,18.0,14.0,-100.00,West,268,1.0,2.0,83,0.00,,,0.00,1.000000,,2013-01-03 07:43:00,
2013-01-03 02:52:00,18.0,14.0,-100.00,West,268,1.0,2.0,83,0.00,,,0.00,1.000000,,2013-01-03 07:52:00,
2013-01-03 03:22:00,16.0,12.0,-100.00,WSW,246,1.0,2.0,85,0.00,,,0.00,1.000000,,2013-01-03 08:22:00,
2013-01-03 03:33:00,16.0,12.0,-100.00,WSW,246,1.0,2.0,85,0.00,,,0.00,1.000000,,2013-01-03 08:33:00,
2013-01-03 03:43:00,16.0,12.0,-100.00,WSW,246,1.0,2.0,85,0.00,,,0.00,1.000000,,2013-01-03 08:43:00,
2013-01-03 03:53:00,16.0,12.0,-100.00,WSW,246,1.0,2.0,85,0.00,,,0.00,1.000000,,2013-01-03 08:53:00,
2013-01-03 04:22:00,15.0,12.0,-100.00,West,265,0.0,2.0,87,0.00,,,0.00,1.000000,,2013-01-03 09:22:00,
2013-01-03 04:34:00,15.0,12.0,-100.00,West,265,0.0,2.0,87,0.00,,,0.00,1.000000,,2013-01-03 09:34:00,
2013-01-03 04:43:00,15.0,12.0,-100.00,West,265,0.0,2.0,87,0.00,,,0.00,1.000000,,2013-01-03 09:43:00,
2013-01-03 04:52:00,15.0,12.0,-100.00,West,265,0.0,2.0,87,0.00,,,0.00,1.000000,,2013-01-03 09:52:00,
2013-01-03 05:23:00,13.0,11.0,-100.00,WNW,282,0.0,0.0,92,0.00,,,0.00,1.000000,,2013-01-03 10:23:00,
2013-01-03 05:33:00,13.0,11.0,-100.00,WNW,282,0.0,0.0,92,0.00,,,0.00,1.000000,,2013-01-03 10:33:00,
2013-01-03 05:43:00,13.0,11.0,-100.00,WNW,282,0.0,0.0,92,0.00,,,0.00,1.000000,,2013-01-03 10:43:00,
2013-01-03 05:52:00,13.0,11.0,-100.00,WNW,282,0.0,0.0,92,0.00,,,0.00,1.000000,,2013-01-03 10:52:00,
2013-01-03 06:23:00,11.0,10.0,-100.00,West,273,0.0,0.0,95,0.00,,,0.00,1.000000,,2013-01-03 11:23:00,
2013-01-03 06:33:00,11.0,10.0,-100.00,West,273,0.0,0.0,95,0.00,,,0.00,1.000000,,2013-01-03 11:33:00,
2013-01-03 06:43:00,11.0,10.0,-100.00,West,273,0.0,0.0,95,0.00,,,0.00,1.000000,,2013-01-03 11:43:00,
2013-01-03 06:53:00,11.0,10.0,-100.00,West,273,0.0,0.0,95,0.00,,,0.00,1.000000,,2013-01-03 11:53:00,
2013-01-03 07:22:00,11.0,10.0,-100.00,WSW,247,0.0,0.0,96,0.00,,,0.00,1.000000,,2013-01-03 12:22:00,
2013-01-03 07:33:00,11.0,10.0,-100.00,WSW,247,0.0,0.0,96,0.00,,,0.00,1.000000,,2013-01-03 12:33:00,
2013-01-03 07:43:00,11.0,10.0,-100.00,WSW,247,0.0,0.0,96,0.00,,,0.00,1.000000,,2013-01-03 12:43:00,
2013-01-03 07:53:00,11.0,10.0,-100.00,WSW,247,0.0,0.0,96,0.00,,,0.00,1.000000,,2013-01-03 12:53:00,
2013-01-03 08:22:00,11.0,10.0,-100.00,West,279,0.0,0.0,97,0.00,,,0.00,4.000000,,2013-01-03 13:22:00,
2013-01-03 08:33:00,11.0,10.0,-100.00,West,279,0.0,0.0,97,0.00,,,0.00,4.000000,,2013-01-03 13:33:00,
2013-01-03 08:42:00,11.0,10.0,-100.00,West,279,0.0,0.0,97,0.00,,,0.00,4.000000,,2013-01-03 13:42:00,
2013-01-03 08:52:00,11.0,10.0,-100.00,West,279,0.0,0.0,97,0.00,,,0.00,4.000000,,2013-01-03 13:52:00,
2013-01-03 09:23:00,13.0,12.0,-100.00,South,188,0.0,2.0,94,0.00,,,0.00,33.000000,,2013-01-03 14:23:00,
2013-01-03 09:33:00,13.0,12.0,-100.00,South,188,0.0,2.0,94,0.00,,,0.00,33.000000,,2013-01-03 14:33:00,
2013-01-03 09:43:00,13.0,12.0,-100.00,South,188,0.0,2.0,94,0.00,,,0.00,33.000000,,2013-01-03 14:43:00,
2013-01-03 09:53:00,13.0,12.0,-100.00,South,188,0.0,2.0,94,0.00,,,0.00,33.000000,,2013-01-03 14:53:00,
2013-01-03 10:23:00,22.0,14.0,-100.00,SW,216,3.0,6.0,70,0.00,,,0.00,211.000000,,2013-01-03 15:23:00,
2013-01-03 10:34:00,22.0,14.0,-100.00,SW,216,3.0,6.0,70,0.00,,,0.00,211.000000,,2013-01-03 15:34:00,
2013-01-03 10:43:00,22.0,14.0,-100.00,SW,216,3.0,6.0,70,0.00,,,0.00,211.000000,,2013-01-03 15:43:00,
2013-01-03 10:53:00,22.0,14.0,-100.00,SW,216,3.0,6.0,70,0.00,,,0.00,211.000000,,2013-01-03 15:53:00,
2013-01-03 11:23:00,26.0,13.0,-100.00,SW,222,5.0,9.0,58,0.00,,,0.00,316.000000,,2013-01-03 16:23:00,
2013-01-03 11:33:00,26.0,13.0,-100.00,SW,222,5.0,9.0,58,0.00,,,0.00,316.000000,,2013-01-03 16:33:00,
2013-01-03 11:43:00,26.0,13.0,-100.00,SW,222,5.0,9.0,58,0.00,,,0.00,316.000000,,2013-01-03 16:43:00,
2013-01-03 11:53:00,26.0,13.0,-100.00,SW,222,5.0,9.0,58,0.00,,,0.00,316.000000,,2013-01-03 16:53:00,
2013-01-03 12:23:00,28.0,14.0,-100.00,WSW,251,5.0,13.0,54,0.00,,,0.00,391.000000,,2013-01-03 17:23:00,
2013-01-03 12:33:00,28.0,14.0,-100.00,WSW,251,5.0,13.0,54,0.00,,,0.00,391.000000,,2013-01-03 17:33:00,
2013-01-03 12:43:00,28.0,14.0,-100.00,WSW,251,5.0,13.0,54,0.00,,,0.00,391.000000,,2013-01-03 17:43:00,
2013-01-03 12:53:00,28.0,14.0,-100.00,WSW,251,5.0,13.0,54,0.00,,,0.00,391.000000,,2013-01-03 17:53:00,
2013-01-03 13:22:00,29.0,12.0,-100.00,West,276,5.0,16.0,48,0.00,,,0.00,408.000000,,2013-01-03 18:22:00,
2013-01-03 13:33:00,29.0,12.0,-100.00,West,276,5.0,16.0,48,0.00,,,0.00,408.000000,,2013-01-03 18:33:00,
2013-01-03 13:43:00,29.0,12.0,-100.00,West,276,5.0,16.0,48,0.00,,,0.00,408.000000,,2013-01-03 18:43:00,
2013-01-03 13:53:00,29.0,12.0,-100.00,West,276,5.0,16.0,48,0.00,,,0.00,408.000000,,2013-01-03 18:53:00,
2013-01-03 13:56:00,31.0,14.0,-100.00,WSW,247,4.0,12.0,48,0.00,,,0.00,353.000000,,2013-01-03 18:56:00,
2013-01-03 15:23:00,31.0,14.0,-100.00,WSW,258,4.0,11.0,48,0.00,,,0.00,264.000000,,2013-01-03 20:23:00,
2013-01-03 15:33:00,31.0,14.0,-100.00,WSW,258,4.0,11.0,48,0.00,,,0.00,264.000000,,2013-01-03 20:33:00,
2013-01-03 15:43:00,31.0,14.0,-100.00,WSW,258,4.0,11.0,48,0.00,,,0.00,264.000000,,2013-01-03 20:43:00,
2013-01-03 15:53:00,31.0,14.0,-100.00,WSW,258,4.0,11.0,48,0.00,,,0.00,264.000000,,2013-01-03 20:53:00,
2013-01-03 16:23:00,27.0,14.0,-100.00,SW,234,4.0,9.0,57,0.00,,,0.00,100.000000,,2013-01-03 21:23:00,
2013-01-03 16:37:00,27.0,14.0,-100.00,SW,234,4.0,9.0,57,0.00,,,0.00,100.000000,,2013-01-03 21:37:00,
2013-01-03 16:50:00,27.0,14.0,-100.00,SW,234,4.0,9.0,57,0.00,,,0.00,100.000000,,2013-01-03 21:50:00,
2013-01-03 17:22:00,25.0,17.0,-100.00,SSW,206,2.0,6.0,70,0.00,,,0.00,21.000000,,2013-01-03 22:22:00,
2013-01-03 17:33:00,25.0,17.0,-100.00,SSW,206,2.0,6.0,70,0.00,,,0.00,21.000000,,2013-01-03 22:33:00,
2013-01-03 17:43:00,25.0,17.0,-100.00,SSW,206,2.0,6.0,70,0.00,,,0.00,21.000000,,2013-01-03 22:43:00,
2013-01-03 17:52:00,25.0,17.0,-100.00,SSW,206,2.0,6.0,70,0.00,,,0.00,21.000000,,2013-01-03 22:52:00,
2013-01-03 18:23:00,26.0,17.0,-100.00,NW,313,2.0,6.0,67,0.00,,,0.00,1.000000,,2013-01-03 23:23:00,
2013-01-03 18:33:00,26.0,17.0,-100.00,NW,313,2.0,6.0,67,0.00,,,0.00,1.000000,,2013-01-03 23:33:00,
2013-01-03 18:43:00,26.0,17.0,-100.00,NW,313,2.0,6.0,67,0.00,,,0.00,1.000000,,2013-01-03 23:43:00,
2013-01-03 18:53:00,26.0,17.0,-100.00,NW,313,2.0,6.0,67,0.00,,,0.00,1.000000,,2013-01-03 23:53:00,
2013-01-03 19:23:00,28.0,17.0,-100.00,WNW,287,2.0,7.0,63,0.00,,,0.00,1.000000,,2013-01-04 00:23:00,
2013-01-03 19:33:00,28.0,17.0,-100.00,WNW,287,2.0,7.0,63,0.00,,,0.00,1.000000,,2013-01-04 00:33:00,
2013-01-03 19:42:00,28.0,17.0,-100.00,WNW,287,2.0,7.0,63,0.00,,,0.00,1.000000,,2013-01-04 00:42:00,
2013-01-03 19:52:00,28.0,17.0,-100.00,WNW,287,2.0,7.0,63,0.00,,,0.00,1.000000,,2013-01-04 00:52:00,
2013-01-03 20:22:00,29.0,18.0,-100.00,WNW,283,3.0,11.0,64,0.00,,,0.00,1.000000,,2013-01-04 01:22:00,
2013-01-03 20:33:00,29.0,18.0,-100.00,WNW,283,3.0,11.0,64,0.00,,,0.00,1.000000,,2013-01-04 01:33:00,
2013-01-03 20:42:00,29.0,18.0,-100.00,WNW,283,3.0,11.0,64,0.00,,,0.00,1.000000,,2013-01-04 01:42:00,
2013-01-03 20:52:00,29.0,18.0,-100.00,WNW,283,3.0,11.0,64,0.00,,,0.00,1.000000,,2013-01-04 01:52:00,
2013-01-03 21:22:00,29.0,19.0,-100.00,West,274,3.0,9.0,67,0.00,,,0.00,1.000000,,2013-01-04 02:22:00,
2013-01-03 21:33:00,29.0,19.0,-100.00,West,274,3.0,9.0,67,0.00,,,0.00,1.000000,,2013-01-04 02:33:00,
2013-01-03 21:42:00,29.0,19.0,-100.00,West,274,3.0,9.0,67,0.00,,,0.00,1.000000,,2013-01-04 02:42:00,
2013-01-03 21:52:00,29.0,19.0,-100.00,West,274,3.0,9.0,67,0.00,,,0.00,1.000000,,2013-01-04 02:52:00,
2013-01-03 22:22:00,30.0,20.0,-100.00,West,273,3.0,9.0,65,0.00,,,0.00,1.000000,,2013-01-04 03:22:00,
2013-01-03 22:33:00,30.0,20.0,-100.00,West,273,3.0,9.0,65,0.00,,,0.00,1.000000,,2013-01-04 03:33:00,
2013-01-03 22:43:00,30.0,20.0,-100.00,West,273,3.0,9.0,65,0.00,,,0.00,1.000000,,2013-01-04 03:43:00,
2013-01-03 22:52:00,30.0,20.0,-100.00,West,273,3.0,9.0,65,0.00,,,0.00,1.000000,,2013-01-04 03:52:00,
2013-01-03 23:22:00,30.0,20.0,-100.00,West,264,3.0,12.0,65,0.00,,,0.00,1.000000,,2013-01-04 04:22:00,
2013-01-03 23:32:00,30.0,20.0,-100.00,West,264,3.0,12.0,65,0.00,,,0.00,1.000000,,2013-01-04 04:32:00,
2013-01-03 23:42:00,30.0,20.0,-100.00,West,264,3.0,12.0,65,0.00,,,0.00,1.000000,,2013-01-04 04:42:00,
2013-01-03 23:52:00,30.0,20.0,-100.00,West,264,3.0,12.0,65,0.00,,,0.00,1.000000,,2013-01-04 04:52:00,